Regional Weather Roundup
Issued by NWS Boston, MA

Home | Current Version | Previous Version | Text Only | Print | Product List | Glossary On
Versions: 1 2 3 4 5 6 7 8 9 10 11 12 13 14 15 16 17 18 19 20 21 22 23 24 25 26 27 28 29 30 31 32 33 34 35 36 37 38 39 40 41 42 43 44 45 46 47 48 49 50
000
ASUS41 KBOX 211810
RWRBOX

REGIONAL WEATHER ROUNDUP
NATIONAL WEATHER SERVICE TAUNTON MA
100 PM EST SUN JAN 21 2018

NOTE:  "FAIR" INDICATES FEW OR NO CLOUDS BELOW 12,000 FEET WITH NO
SIGNIFICANT WEATHER AND/OR OBSTRUCTIONS TO VISIBILITY.

MAZALL-211900-
EASTERN MASSACHUSETTS

CITY           SKY/WX    TMP DP  RH WIND       PRES   REMARKS
BOSTON         FAIR      48  30  49 W7        30.11F
6HR MIN TEMP:  39; 6HR MAX TEMP:  48;

BEVERLY        FAIR      49  30  48 NW8       30.10F
LAWRENCE       FAIR      50  29  44 W7        30.11F
BEDFORD        FAIR      48  29  47 W7        30.09F
BLUE HILL        N/A     45  29  53 NW5       30.08F
NORWOOD        FAIR      50  30  46 VRB3      30.11F
MARSHFIELD     FAIR      50  28  43 VRB6      30.11S
PLYMOUTH       FAIR      50  29  44 VRB5      30.11F
TAUNTON        FAIR      49  29  46 VRB3      30.10F
NEW BEDFORD    FAIR      48  30  49 W5        30.10F
$$

MAZALL-211900-
CAPE COD AND THE ISLANDS

CITY           SKY/WX    TMP DP  RH WIND       PRES   REMARKS
FALMOUTH       FAIR      48  28  46 CALM      30.11
HYANNIS        FAIR      48  30  49 N7        30.09F
CHATHAM        FAIR      48  30  49 VRB6      30.11F
PROVINCETOWN   FAIR      44  34  67 NW7       30.11F
NANTUCKET      FAIR      48  32  53 NW5       30.11F
MARTHAS VNYRD  FAIR     N/A N/A N/A NW7       30.11F
$$

MAZALL-211900-
CENTRAL AND WESTERN MASSACHUSETTS

CITY           SKY/WX    TMP DP  RH WIND       PRES   REMARKS
WORCESTER      PTSUNNY   43  27  53 W7        30.09F
6HR MIN TEMP:  35; 6HR MAX TEMP:  43;

FITCHBURG      FAIR      49  32  52 VRB3      30.11F
ORANGE         FAIR      45  29  53 CALM      30.11F
SPRINGFIELD    PTSUNNY   46  30  54 CALM      30.11F
WESTFIELD      FAIR      46  30  53 CALM      30.11F
NORTH ADAMS    CLOUDY    40  29  64 CALM      30.12F
PITTSFIELD     CLOUDY    38  27  64 W7        30.10F
$$

RIZALL-211900-
RHODE ISLAND

CITY           SKY/WX    TMP DP  RH WIND       PRES   REMARKS
PROVIDENCE     FAIR      50  31  48 N5        30.12F
6HR MIN TEMP:  31; 6HR MAX TEMP:  50;

NEWPORT        FAIR      47  30  51 VRB5      30.11F
BLOCK ISLAND   FAIR      45  31  58 W5        30.13F
SMITHFIELD     FAIR     N/A N/A N/A CALM      30.11F
WESTERLY       FAIR      50  31  48 VRB3      30.12F
$$

CTZALL-211900-
CONNECTICUT

CITY           SKY/WX    TMP DP  RH WIND       PRES   REMARKS
BRADLEY INTL   PTSUNNY   47  31  53 SE3       30.12F
6HR MIN TEMP:  24; 6HR MAX TEMP:  48;

HARTFORD       FAIR      47  31  53 CALM      30.13F
BRIDGEPORT     FAIR      42  29  59 SW9       30.15F
DANBURY        FAIR      46  30  53 CALM      30.13F
GROTON         FAIR      49  30  48 CALM      30.12F
NEW HAVEN      FAIR      46  30  53 CALM      30.13F
CHESTER        FAIR      48  30  49 NW8       30.12F
MERIDEN        FAIR      47  32  56 CALM      30.13F
WILLIMANTIC    FAIR      48  31  51 VRB3      30.12F
OXFORD         FAIR      44  30  57 NW6       30.12F
$$

MEZ002-015-021-024-NHZ003-005-008-011-012-014-VTZ005-008-211900-
NORTHERN NEW ENGLAND

CITY           SKY/WX    TMP DP  RH WIND       PRES   REMARKS
PORTLAND ME    CLOUDY    41  29  62 CALM      30.09S
6HR MIN TEMP:  28; 6HR MAX TEMP:  41;

BANGOR ME      PTSUNNY   35  18  49 SE7       30.05S WCI  29
CONCORD NH     FAIR      43  31  62 SW3       30.10F
MANCHESTER NH  PTSUNNY   45  28  51 NW7       30.09F
NASHUA NH      FAIR      46  29  51 NW10      30.11F
PORTSMOUTH NH  PTSUNNY   44  29  55 W8        30.08F
JAFFREY NH     FAIR      45  29  53 CALM      30.08F
KEENE NH       FAIR      45  30  55 N7        30.11F
BURLINGTON VT  PTSUNNY   40  26  57 CALM      30.11F
MT. WASHINGTON FOG       14  14 100 NW46G60     N/A  VSB 1/16WCI -10
$$

NYZ052-076-211900-
EASTERN NEW YORK

CITY           SKY/WX    TMP DP  RH WIND       PRES   REMARKS
ALBANY         CLOUDY    40  29  64 W12       30.16F
6HR MIN TEMP:  37; 6HR MAX TEMP:  41;

NEW YORK CITY  PTSUNNY   48  29  47 NW5       30.14F
6HR MIN TEMP:  42; 6HR MAX TEMP:  49;

$$

ANZALL-211900-
MARINE OBSERVATIONS

STATION/POSITION TIME  TEMP    WIND        PRES    VSBY  WAVE
                       AIR SEA DIR/SP/G                  HT/PER
                 (UTC) (F)     (DEG/KT/KT) (MB)    (MI)  (FT/S)
BOSTON BUOY      1750   43 40  240/  6/  8 1018.7F         1
BUZZARDS BAY     1700   41     280/  7/  7 1020.6F
NANTUCKET SOUND  1750   36 36  280/  6/  6 1019.7F         1/ 8
MASS BAY-STELLWA 1704   40 39              1018.8F         1/ 5
ISLE OF SHOALS   1800   42     300/ 12/ 12 1018.8F
S OF BLOCK IS    1743      42                N/A           3/ 8
$$

......................KEY.........................
  SKY/WX - SKY CONDITION/PRESENT WEATHER
  TMP    - TEMPERATURE IN FAHRENHEIT
  DWPT   - DEWPOINT IN FAHRENHEIT
  RH     - RELATIVE HUMIDITY IN PERCENT
  WIND   - DIRECTION AND SPEED IN MPH
  PRES   - MEAN SEA LEVEL PRESSURE IN INCHES OF HG
  WCI    - WIND CHILL INDEX
  VSB    - VISIBILITY IN MILES
  HX     - HEAT INDEX
  TC     - TEMPERATURE IN CELSIUS
  VRB    - VARIABLE WIND DIRECTION
  N/A    - NOT AVAILABLE



USA.gov is the U.S. government's official web portal to all federal, state and local government web resources and services.